Fairmont, MN

7:18 PM CDT on March 28, 2017 (GMT -0500)
Fairmont Municipal

Weather History for KFRM - March, 2014

Change the Weather History Date:

Tuesday, March 25, 2014

  Actual Average Record
Temperature  
Mean Temperature 19 °F -  
Max Temperature 26 °F 45 °F 71 °F (2007)
Min Temperature 12 °F 27 °F -1 °F (1952)
Degree Days  
Heating Degree Days 46    
Moisture  
Dew Point 9 °F    
Average Humidity 62    
Maximum Humidity 80    
Minimum Humidity 43    
Precipitation  
Precipitation 0.00 in - - ()
Sea Level Pressure  
Sea Level Pressure 30.24 in    
Wind  
Wind Speed 14 mph (NW)    
Max Wind Speed 29 mph    
Max Gust Speed 34 mph    
Visibility 10 miles    
Events      
Averages and records for this station are not official NWS values.
T = Trace of Precipitation, MM = Missing Value Source: NWS Daily Summary

Daily Weather History Graph

Daily Weather History Graph

Search for Another Location

Airport or City:

Trip Planner

Search our weather history database for the weather conditions in past years. The results will help you decide how hot, cold, wet, or windy it might be!

Date:

Astronomy

Mar. 25, 2014 Rise Set
Actual Time 7:11 AM CDT 7:36 PM CDT
Civil Twilight 6:43 AM CDT 8:04 PM CDT
Nautical Twilight 6:09 AM CDT 8:38 PM CDT
Astronomical Twilight 5:34 AM CDT 9:13 PM CDT
Moon 3:43 AM CDT (3/25) 1:58 PM CDT (3/25)
Length of Visible Light 13h 21m
Length of Day
12h 24m
Waning Crescent, 32% of the Moon is Illuminated
Mar 25
Waning Crescent
Mar 30
New
Apr 7
First Quarter
Apr 15
Full
Apr 22
Last Quarter

Hourly Weather History & Observations

Time (CDT) Temp. Windchill Dew Point Humidity Pressure Visibility Wind Dir Wind Speed Gust Speed Precip Events Conditions
12:15 AM 24.8 °F 11.9 °F 12.2 °F 59% 30.17 in 10.0 mi NW 16.1 mph - N/A   Clear
12:35 AM 24.8 °F 12.9 °F 12.2 °F 59% 30.17 in 10.0 mi NW 13.8 mph - N/A   Clear
12:55 AM 24.8 °F 13.4 °F 12.2 °F 59% 30.17 in 10.0 mi NW 12.7 mph - N/A   Clear
1:15 AM 23.0 °F 11.7 °F 14.0 °F 68% 30.17 in 10.0 mi NW 11.5 mph - N/A   Clear
1:35 AM 23.0 °F 10.1 °F 14.0 °F 68% 30.17 in 10.0 mi NW 15.0 mph - N/A   Clear
1:55 AM 23.0 °F 10.6 °F 14.0 °F 68% 30.17 in 10.0 mi NW 13.8 mph - N/A   Clear
2:15 AM 23.0 °F 10.1 °F 14.0 °F 68% 30.18 in 10.0 mi NW 15.0 mph - N/A   Scattered Clouds
2:35 AM 21.2 °F 8.3 °F 15.8 °F 80% 30.19 in 2.0 mi NW 13.8 mph - N/A   Overcast
2:55 AM 21.2 °F 6.8 °F 15.8 °F 80% 30.19 in 10.0 mi NNW 17.3 mph 20.7 mph N/A   Overcast
3:15 AM 19.4 °F 4.1 °F 14.0 °F 80% 30.19 in 10.0 mi NW 18.4 mph 25.3 mph N/A   Overcast
3:35 AM 19.4 °F 4.1 °F 12.2 °F 74% 30.20 in 10.0 mi NW 18.4 mph 24.2 mph N/A   Mostly Cloudy
3:55 AM 17.6 °F -1.6 °F 8.6 °F 68% 30.20 in 10.0 mi NW 28.8 mph 34.5 mph N/A   Overcast
4:15 AM 17.6 °F 1.3 °F 6.8 °F 63% 30.21 in 10.0 mi NW 19.6 mph 27.6 mph N/A   Mostly Cloudy
4:35 AM 17.6 °F 3.2 °F 6.8 °F 63% 30.22 in 10.0 mi NNW 15.0 mph 25.3 mph N/A   Mostly Cloudy
4:55 AM 17.6 °F 1.7 °F 8.6 °F 68% 30.23 in 10.0 mi North 18.4 mph 23.0 mph N/A   Mostly Cloudy
5:15 AM 15.8 °F -1.1 °F 8.6 °F 73% 30.23 in 10.0 mi North 19.6 mph 23.0 mph N/A   Overcast
5:35 AM 15.8 °F -0.6 °F 5.0 °F 62% 30.25 in 10.0 mi NNW 18.4 mph 21.9 mph N/A   Overcast
5:55 AM 15.8 °F 0.9 °F 6.8 °F 68% 30.25 in 10.0 mi NNW 15.0 mph - N/A   Overcast
6:15 AM 15.8 °F -0.6 °F 6.8 °F 68% 30.26 in 10.0 mi NNW 18.4 mph 25.3 mph N/A   Overcast
6:35 AM 15.8 °F -1.9 °F 5.0 °F 62% 30.27 in 10.0 mi NNW 21.9 mph 28.8 mph N/A   Overcast
6:55 AM 14.0 °F -3.0 °F 5.0 °F 67% 30.27 in 10.0 mi North 18.4 mph - N/A   Overcast
7:15 AM 14.0 °F -3.0 °F 3.2 °F 62% 30.28 in 10.0 mi NNW 18.4 mph 21.9 mph N/A   Mostly Cloudy
7:35 AM 14.0 °F -2.0 °F 3.2 °F 62% 30.29 in 10.0 mi NNW 16.1 mph - N/A   Overcast
7:55 AM 12.2 °F -3.1 °F 3.2 °F 67% 30.29 in 10.0 mi NNW 13.8 mph - N/A   Mostly Cloudy
8:15 AM 14.0 °F -2.0 °F 5.0 °F 67% 30.29 in 10.0 mi NNW 16.1 mph 19.6 mph N/A   Mostly Cloudy
8:35 AM 14.0 °F -0.8 °F 5.0 °F 67% 30.29 in 10.0 mi NNW 13.8 mph - N/A   Scattered Clouds
8:55 AM 15.8 °F -0.2 °F 5.0 °F 62% 30.30 in 10.0 mi NNW 17.3 mph - N/A   Partly Cloudy
9:15 AM 15.8 °F 0.3 °F 5.0 °F 62% 30.31 in 10.0 mi NNW 16.1 mph - N/A   Partly Cloudy
9:35 AM 15.8 °F -0.2 °F 3.2 °F 58% 30.32 in 10.0 mi NW 17.3 mph - N/A   Mostly Cloudy
9:55 AM 15.8 °F 1.4 °F 5.0 °F 62% 30.33 in 10.0 mi NW 13.8 mph 20.7 mph N/A   Mostly Cloudy
10:15 AM 15.8 °F 2.1 °F 6.8 °F 68% 30.33 in 8.0 mi NW 12.7 mph - N/A   Overcast
10:35 AM 15.8 °F 0.3 °F 6.8 °F 68% 30.34 in 9.0 mi WNW 16.1 mph - N/A   Overcast
10:55 AM 15.8 °F 2.1 °F 10.4 °F 79% 30.34 in 1.2 mi WNW 12.7 mph - N/A   Overcast
11:15 AM 17.6 °F 4.3 °F 8.6 °F 68% 30.33 in 8.0 mi NW 12.7 mph - N/A   Mostly Cloudy
11:35 AM 17.6 °F 1.7 °F 6.8 °F 63% 30.33 in 10.0 mi WNW 18.4 mph - N/A   Mostly Cloudy
11:55 AM 17.6 °F 3.2 °F 6.8 °F 63% 30.33 in 10.0 mi WNW 15.0 mph - N/A   Mostly Cloudy
12:15 PM 17.6 °F 4.3 °F 6.8 °F 63% 30.33 in 10.0 mi WNW 12.7 mph - N/A   Overcast
12:35 PM 17.6 °F 4.3 °F 5.0 °F 58% 30.32 in 10.0 mi NW 12.7 mph 18.4 mph N/A   Overcast
12:55 PM 17.6 °F 5.0 °F 6.8 °F 63% 30.32 in 10.0 mi NW 11.5 mph - N/A   Overcast
1:15 PM 19.4 °F 6.6 °F 6.8 °F 58% 30.31 in 10.0 mi WNW 12.7 mph 20.7 mph N/A   Overcast
1:35 PM 21.2 °F 10.1 °F 6.8 °F 54% 30.30 in 10.0 mi WNW 10.4 mph 17.3 mph N/A   Mostly Cloudy
1:55 PM 19.4 °F 6.6 °F 6.8 °F 58% 30.29 in 10.0 mi NNW 12.7 mph 21.9 mph N/A   Mostly Cloudy
2:15 PM 21.2 °F 8.9 °F 6.8 °F 54% 30.29 in 10.0 mi NW 12.7 mph - N/A   Mostly Cloudy
2:35 PM 21.2 °F 10.1 °F 6.8 °F 54% 30.28 in 10.0 mi WNW 10.4 mph - N/A   Mostly Cloudy
2:55 PM 21.2 °F 8.3 °F 6.8 °F 54% 30.27 in 10.0 mi NW 13.8 mph - N/A   Overcast
3:15 PM 23.0 °F 10.6 °F 6.8 °F 50% 30.26 in 10.0 mi WNW 13.8 mph - N/A   Overcast
3:35 PM 23.0 °F 10.6 °F 8.6 °F 54% 30.25 in 10.0 mi WNW 13.8 mph 17.3 mph N/A   Overcast
3:55 PM 24.8 °F 16.1 °F 6.8 °F 46% 30.25 in 10.0 mi NW 8.1 mph - N/A   Mostly Cloudy
4:15 PM 24.8 °F 12.9 °F 6.8 °F 46% 30.24 in 10.0 mi WNW 13.8 mph - N/A   Mostly Cloudy
4:35 PM 26.6 °F 17.5 °F 6.8 °F 43% 30.22 in 10.0 mi WNW 9.2 mph - N/A   Partly Cloudy
4:55 PM 26.6 °F 15.7 °F 8.6 °F 47% 30.22 in 10.0 mi NW 12.7 mph 17.3 mph N/A   Mostly Cloudy
5:15 PM 26.6 °F 14.3 °F 6.8 °F 43% 30.21 in 10.0 mi NW 16.1 mph - N/A   Scattered Clouds
5:35 PM 26.6 °F 16.8 °F 8.6 °F 47% 30.21 in 10.0 mi WNW 10.4 mph 17.3 mph N/A   Scattered Clouds
5:55 PM 26.6 °F 19.1 °F 8.6 °F 47% 30.20 in 10.0 mi NW 6.9 mph - N/A   Scattered Clouds
6:15 PM 26.6 °F 16.2 °F 8.6 °F 47% 30.20 in 10.0 mi NW 11.5 mph - N/A   Scattered Clouds
6:35 PM 26.6 °F 17.5 °F 8.6 °F 47% 30.20 in 10.0 mi NW 9.2 mph - N/A   Scattered Clouds
6:55 PM 26.6 °F 17.5 °F 8.6 °F 47% 30.20 in 10.0 mi NW 9.2 mph - N/A   Partly Cloudy
7:15 PM 26.6 °F 17.5 °F 8.6 °F 47% 30.19 in 10.0 mi NW 9.2 mph - N/A   Scattered Clouds
7:35 PM 24.8 °F 16.9 °F 8.6 °F 50% 30.19 in 10.0 mi NW 6.9 mph - N/A   Partly Cloudy
7:55 PM 24.8 °F 17.9 °F 10.4 °F 54% 30.19 in 10.0 mi NW 5.8 mph - N/A   Clear
8:15 PM 24.8 °F 19.1 °F 8.6 °F 50% 30.18 in 10.0 mi WNW 4.6 mph - N/A   Clear
8:35 PM 23.0 °F - 10.4 °F 59% 30.18 in 10.0 mi Calm Calm - N/A   Clear
8:55 PM 24.8 °F - 10.4 °F 54% 30.19 in 10.0 mi Calm Calm - N/A   Clear
9:15 PM 23.0 °F - 10.4 °F 59% 30.19 in 10.0 mi Calm Calm - N/A   Clear
9:35 PM 23.0 °F - 12.2 °F 63% 30.19 in 10.0 mi Calm Calm - N/A   Clear
9:55 PM 21.2 °F 16.4 °F 14.0 °F 74% 30.18 in 10.0 mi ESE 3.5 mph - N/A   Clear
10:15 PM 21.2 °F 14.9 °F 14.0 °F 74% 30.18 in 10.0 mi ESE 4.6 mph - N/A   Clear
10:35 PM 21.2 °F 13.6 °F 15.8 °F 80% 30.18 in 10.0 mi ESE 5.8 mph - N/A   Clear
10:55 PM 21.2 °F 12.6 °F 12.2 °F 68% 30.17 in 10.0 mi SE 6.9 mph - N/A   Clear
11:15 PM 19.4 °F 10.4 °F 12.2 °F 74% 30.17 in 10.0 mi SE 6.9 mph - N/A   Clear
11:35 PM 19.4 °F 9.5 °F 12.2 °F 74% 30.17 in 10.0 mi SE 8.1 mph - N/A   Clear
11:55 PM 19.4 °F 10.4 °F 12.2 °F 74% 30.16 in 10.0 mi SSE 6.9 mph - N/A   Clear